| time (UTC) | temp F | wind direction | speed MPH | gust MPH | rain 1hr in | rain 24hr in | rain mn in | humidity % | barometer mb |
| 20260902163041 | 69 | 0 | 0.0 | 6.0 | 0.11 | 0.25 | 0.25 | 98 | 1017.2 |
| 20260902162021 | 69 | 277 | 2.0 | 10.0 | 0.13 | 0.25 | 0.25 | 98 | 1016.9 |
| 20260902161539 | 69 | 115 | 1.0 | 10.0 | 0.13 | 0.24 | 0.24 | 98 | 1017.0 |
| 20260902161021 | 70 | 0 | 0.0 | 9.0 | 0.15 | 0.24 | 0.24 | 98 | 1017.5 |
| 20260902160519 | 70 | 0 | 1.0 | 9.0 | 0.15 | 0.23 | 0.23 | 98 | 1017.8 |
| 20260902154554 | 71 | 0 | 0.0 | 1.0 | 0.14 | 0.17 | 0.17 | 98 | 1018.5 |
| 20260902154025 | 70 | 0 | 0.0 | 1.0 | 0.14 | 0.16 | 0.16 | 98 | 1018.8 |
| 20260902153521 | 70 | 0 | 0.0 | 1.0 | 0.14 | 0.16 | 0.16 | 98 | 1018.9 |
| 20260902153040 | 70 | 0 | 0.0 | 2.0 | 0.12 | 0.14 | 0.14 | 98 | 1018.9 |
| 20260902152517 | 70 | 0 | 0.0 | 2.0 | 0.12 | 0.13 | 0.13 | 98 | 1018.7 |
| 20260902152021 | 70 | 251 | 0.0 | 1.0 | 0.11 | 0.12 | 0.12 | 98 | 1018.6 |
| 20260902151539 | 71 | 251 | 0.0 | 1.0 | 0.10 | 0.10 | 0.10 | 98 | 1018.7 |
| 20260902150040 | 71 | 0 | 0.0 | 1.0 | 0.07 | 0.07 | 0.07 | 98 | 1018.5 |
| 20260902145021 | 71 | 0 | 0.0 | 2.0 | 0.04 | 0.04 | 0.04 | 98 | 1018.4 |
| 20260902144544 | 71 | 0 | 0.0 | 2.0 | 0.03 | 0.03 | 0.03 | 98 | 1018.6 |
| 20260902144020 | 71 | 251 | 0.0 | 2.0 | 0.02 | 0.02 | 0.02 | 98 | 1018.4 |
| 20260902143520 | 71 | 0 | 0.0 | 2.0 | 0.02 | 0.02 | 0.02 | 98 | 1018.1 |
| 20260902143038 | 71 | 0 | 0.0 | 2.0 | 0.02 | 0.02 | 0.02 | 98 | 1017.9 |
| 20260902142518 | 71 | 251 | 0.0 | 2.0 | 0.01 | 0.01 | 0.01 | 98 | 1017.8 |
| 20260902142020 | 71 | 0 | 0.0 | 2.0 | 0.01 | 0.01 | 0.01 | 98 | 1017.9 |
| 20260902141537 | 71 | 0 | 0.0 | 1.0 | 0.00 | 0.00 | 0.00 | 98 | 1017.9 |
| 20260902140040 | 71 | 0 | 0.0 | 6.0 | 0.00 | 0.00 | 0.00 | 98 | 1017.4 |
| 20260902135520 | 71 | 0 | 0.0 | 6.0 | 0.00 | 0.00 | 0.00 | 98 | 1017.7 |
| 20260902135021 | 71 | 0 | 0.0 | 4.0 | 0.00 | 0.00 | 0.00 | 98 | 1017.8 |
| 20260902134539 | 71 | 0 | 0.0 | 2.0 | 0.00 | 0.00 | 0.00 | 98 | 1018.0 |
| 20260902134021 | 71 | 0 | 0.0 | 1.0 | 0.00 | 0.00 | 0.00 | 99 | 1018.1 |
| 20260902133519 | 71 | 0 | 0.0 | 2.0 | 0.00 | 0.00 | 0.00 | 99 | 1018.1 |
| 20260902133047 | 71 | 0 | 0.0 | 2.0 | 0.00 | 0.00 | 0.00 | 99 | 1018.1 |
| 20260902132022 | 71 | 0 | 0.0 | 3.0 | 0.00 | 0.00 | 0.00 | 99 | 1017.7 |
| 20260902131544 | 71 | 0 | 0.0 | 3.0 | 0.00 | 0.00 | 0.00 | 99 | 1017.7 |
| 20260902131024 | 71 | 0 | 0.0 | 2.0 | 0.00 | 0.00 | 0.00 | 99 | 1017.7 |
| 20260902130519 | 71 | 0 | 0.0 | 2.0 | 0.00 | 0.00 | 0.00 | 99 | 1017.9 |
| 20260902130037 | 71 | 0 | 0.0 | 0.0 | 0.00 | 0.00 | 0.00 | 99 | 1017.8 |
| 20260902125520 | 71 | 0 | 0.0 | 0.0 | 0.00 | 0.00 | 0.00 | 99 | 1017.9 |
| 20260902124539 | 71 | 0 | 0.0 | 0.0 | 0.00 | 0.00 | 0.00 | 99 | 1018.0 |
| 20260902123039 | 71 | 0 | 0.0 | 0.0 | 0.00 | 0.00 | 0.00 | 99 | 1017.9 |
| 20260902122528 | 71 | 0 | 0.0 | 0.0 | 0.00 | 0.00 | 0.00 | 99 | 1017.8 |
| 20260902122019 | 71 | 0 | 0.0 | 0.0 | 0.00 | 0.00 | 0.00 | 99 | 1017.7 |
| 20260902121539 | 71 | 0 | 0.0 | 0.0 | 0.00 | 0.00 | 0.00 | 99 | 1017.6 |
| 20260902121020 | 70 | 0 | 0.0 | 0.0 | 0.00 | 0.00 | 0.00 | 99 | 1017.4 |
| 20260902120520 | 70 | 0 | 0.0 | 0.0 | 0.00 | 0.00 | 0.00 | 99 | 1017.5 |
| 20260902120039 | 70 | 0 | 0.0 | 1.0 | 0.00 | 0.00 | 0.00 | 99 | 1017.8 |
| 20260902115516 | 70 | 0 | 0.0 | 1.0 | 0.00 | 0.00 | 0.00 | 99 | 1017.5 |
| 20260902114539 | 70 | 0 | 0.0 | 0.0 | 0.00 | 0.00 | 0.00 | 99 | 1017.5 |
| 20260902113520 | 70 | 0 | 0.0 | 0.0 | 0.00 | 0.00 | 0.00 | 99 | 1017.4 |
| 20260902113043 | 69 | 0 | 0.0 | 0.0 | 0.00 | 0.00 | 0.00 | 99 | 1017.5 |
| 20260902112521 | 69 | 0 | 0.0 | 0.0 | 0.00 | 0.00 | 0.00 | 99 | 1017.2 |
| 20260902112018 | 69 | 0 | 0.0 | 0.0 | 0.00 | 0.00 | 0.00 | 99 | 1017.5 |
| 20260902111538 | 69 | 0 | 0.0 | 0.0 | 0.00 | 0.00 | 0.00 | 99 | 1017.2 |
| 20260902111018 | 69 | 0 | 0.0 | 0.0 | 0.00 | 0.00 | 0.00 | 99 | 1017.2 |
| 20260902110519 | 69 | 0 | 0.0 | 0.0 | 0.00 | 0.00 | 0.00 | 99 | 1017.1 |
| 20260902110039 | 69 | 0 | 0.0 | 0.0 | 0.00 | 0.00 | 0.00 | 99 | 1017.1 |
| 20260902105520 | 69 | 0 | 0.0 | 0.0 | 0.00 | 0.04 | 0.00 | 99 | 1017.2 |
| 20260902104545 | 69 | 0 | 0.0 | 0.0 | 0.00 | 0.04 | 0.00 | 99 | 1017.2 |
| 20260902104021 | 69 | 0 | 0.0 | 0.0 | 0.00 | 0.04 | 0.00 | 99 | 1017.1 |
| 20260902103519 | 69 | 0 | 0.0 | 0.0 | 0.00 | 0.04 | 0.00 | 99 | 1017.4 |
| 20260902103045 | 69 | 0 | 0.0 | 0.0 | 0.00 | 0.04 | 0.00 | 99 | 1017.5 |
| 20260902102516 | 69 | 0 | 0.0 | 0.0 | 0.00 | 0.04 | 0.00 | 99 | 1017.5 |
| 20260902101545 | 69 | 0 | 0.0 | 0.0 | 0.00 | 0.04 | 0.00 | 99 | 1017.7 |
| 20260902100038 | 69 | 0 | 0.0 | 0.0 | 0.00 | 0.04 | 0.00 | 99 | 1017.4 |
| 20260902095519 | 69 | 0 | 0.0 | 0.0 | 0.00 | 0.04 | 0.00 | 99 | 1017.5 |
| 20260902095019 | 69 | 0 | 0.0 | 0.0 | 0.00 | 0.04 | 0.00 | 99 | 1017.5 |
| 20260902094537 | 69 | 0 | 0.0 | 0.0 | 0.00 | 0.04 | 0.00 | 99 | 1017.7 |
| 20260902094020 | 69 | 0 | 0.0 | 0.0 | 0.00 | 0.04 | 0.00 | 99 | 1017.8 |
| 20260902093521 | 69 | 0 | 0.0 | 0.0 | 0.00 | 0.04 | 0.00 | 99 | 1017.6 |
| 20260902093042 | 69 | 0 | 0.0 | 0.0 | 0.00 | 0.04 | 0.00 | 99 | 1017.6 |
| 20260902092518 | 69 | 0 | 0.0 | 0.0 | 0.00 | 0.04 | 0.00 | 99 | 1017.6 |
| 20260902091549 | 69 | 0 | 0.0 | 0.0 | 0.00 | 0.04 | 0.00 | 99 | 1017.5 |
| 20260902090036 | 69 | 0 | 0.0 | 0.0 | 0.00 | 0.04 | 0.00 | 99 | 1017.5 |
| 20260902085524 | 69 | 0 | 0.0 | 0.0 | 0.00 | 0.12 | 0.00 | 99 | 1017.7 |
| 20260902085022 | 69 | 0 | 0.0 | 0.0 | 0.00 | 0.12 | 0.00 | 99 | 1017.7 |
| 20260902084550 | 69 | 0 | 0.0 | 0.0 | 0.00 | 0.12 | 0.00 | 99 | 1017.6 |
| 20260902084020 | 69 | 0 | 0.0 | 0.0 | 0.00 | 0.12 | 0.00 | 99 | 1017.6 |
| 20260902083522 | 69 | 0 | 0.0 | 0.0 | 0.00 | 0.12 | 0.00 | 99 | 1017.5 |
| 20260902083048 | 69 | 0 | 0.0 | 0.0 | 0.00 | 0.12 | 0.00 | 99 | 1017.6 |
| 20260902082519 | 68 | 0 | 0.0 | 0.0 | 0.00 | 0.12 | 0.00 | 99 | 1017.5 |
| 20260902082017 | 68 | 0 | 0.0 | 0.0 | 0.00 | 0.12 | 0.00 | 99 | 1017.5 |
| 20260902081534 | 68 | 0 | 0.0 | 0.0 | 0.00 | 0.12 | 0.00 | 99 | 1017.5 |
| 20260902080040 | 68 | 0 | 0.0 | 1.0 | 0.00 | 0.12 | 0.00 | 99 | 1017.4 |
| 20260902075519 | 68 | 0 | 0.0 | 1.0 | 0.00 | 0.15 | 0.00 | 99 | 1017.3 |
| 20260902075021 | 68 | 0 | 0.0 | 1.0 | 0.00 | 0.15 | 0.00 | 99 | 1017.4 |
| 20260902074538 | 68 | 0 | 0.0 | 0.0 | 0.00 | 0.15 | 0.00 | 99 | 1017.4 |
| 20260902074020 | 68 | 0 | 0.0 | 0.0 | 0.00 | 0.15 | 0.00 | 99 | 1017.3 |
| 20260902073520 | 68 | 0 | 0.0 | 0.0 | 0.00 | 0.15 | 0.00 | 99 | 1017.3 |
| 20260902073037 | 68 | 0 | 0.0 | 0.0 | 0.00 | 0.15 | 0.00 | 99 | 1017.3 |
| 20260902072518 | 68 | 0 | 0.0 | 0.0 | 0.00 | 0.15 | 0.00 | 99 | 1017.3 |
| 20260902072016 | 68 | 0 | 0.0 | 0.0 | 0.00 | 0.15 | 0.00 | 99 | 1017.3 |
| 20260902071539 | 68 | 0 | 0.0 | 0.0 | 0.00 | 0.15 | 0.00 | 99 | 1017.2 |
| 20260902070040 | 68 | 0 | 0.0 | 0.0 | 0.00 | 0.15 | 0.00 | 99 | 1017.2 |
| 20260902065020 | 68 | 0 | 0.0 | 0.0 | 0.00 | 0.17 | 0.00 | 99 | 1017.4 |
| 20260902064540 | 67 | 0 | 0.0 | 0.0 | 0.00 | 0.17 | 0.00 | 99 | 1017.4 |
| 20260902064019 | 67 | 0 | 0.0 | 0.0 | 0.00 | 0.17 | 0.00 | 99 | 1017.3 |
| 20260902063516 | 67 | 0 | 0.0 | 0.0 | 0.00 | 0.17 | 0.00 | 99 | 1017.3 |
| 20260902063044 | 67 | 0 | 0.0 | 0.0 | 0.00 | 0.17 | 0.00 | 99 | 1017.4 |
| 20260902062520 | 66 | 0 | 0.0 | 0.0 | 0.00 | 0.17 | 0.00 | 99 | 1017.3 |
| 20260902062023 | 66 | 0 | 0.0 | 0.0 | 0.00 | 0.17 | 0.00 | 99 | 1017.5 |
| 20260902061547 | 66 | 0 | 0.0 | 0.0 | 0.00 | 0.17 | 0.00 | 98 | 1017.5 |
| 20260902061020 | 66 | 0 | 0.0 | 0.0 | 0.00 | 0.17 | 0.00 | 98 | 1017.4 |
| 20260902060520 | 66 | 0 | 0.0 | 0.0 | 0.00 | 0.17 | 0.00 | 98 | 1017.5 |
| 20260902060039 | 66 | 0 | 0.0 | 0.0 | 0.00 | 0.17 | 0.00 | 98 | 1017.4 |
| 20260902055521 | 66 | 0 | 0.0 | 1.0 | 0.00 | 0.17 | 0.00 | 98 | 1017.4 |
| 20260902055020 | 66 | 0 | 0.0 | 1.0 | 0.00 | 0.17 | 0.00 | 98 | 1017.5 |
| 20260902054539 | 66 | 0 | 0.0 | 0.0 | 0.00 | 0.17 | 0.00 | 98 | 1017.6 |
| 20260902053040 | 66 | 0 | 0.0 | 0.0 | 0.00 | 0.17 | 0.00 | 98 | 1017.4 |
| 20260902051541 | 66 | 0 | 0.0 | 0.0 | 0.00 | 0.17 | 0.00 | 98 | 1017.3 |
| 20260902051021 | 66 | 0 | 0.0 | 0.0 | 0.00 | 0.17 | 0.00 | 98 | 1017.2 |
| 20260902050520 | 66 | 0 | 0.0 | 0.0 | 0.00 | 0.17 | 0.00 | 98 | 1017.2 |
| 20260902050052 | 66 | 0 | 0.0 | 0.0 | 0.00 | 0.17 | 0.00 | 98 | 1017.1 |
| 20260902044554 | 66 | 0 | 0.0 | 0.0 | 0.00 | 0.18 | 0.00 | 98 | 1017.2 |
| 20260902043039 | 66 | 0 | 0.0 | 0.0 | 0.00 | 0.18 | 0.00 | 98 | 1017.0 |
| 20260902042521 | 66 | 0 | 0.0 | 0.0 | 0.00 | 0.18 | 0.00 | 98 | 1017.0 |
| 20260902042019 | 66 | 0 | 0.0 | 0.0 | 0.00 | 0.18 | 0.00 | 98 | 1016.8 |
| 20260902041538 | 67 | 0 | 0.0 | 0.0 | 0.00 | 0.18 | 0.00 | 97 | 1017.0 |
| 20260902041022 | 67 | 0 | 0.0 | 0.0 | 0.00 | 0.18 | 0.00 | 97 | 1016.8 |
| 20260902040520 | 67 | 0 | 0.0 | 0.0 | 0.00 | 0.18 | 0.00 | 97 | 1017.0 |
| 20260902040041 | 67 | 0 | 0.0 | 0.0 | 0.00 | 0.18 | 0.00 | 97 | 1017.0 |
| 20260902035516 | 67 | 0 | 0.0 | 0.0 | 0.00 | 0.18 | 0.18 | 97 | 1017.0 |
| 20260902034541 | 67 | 0 | 0.0 | 0.0 | 0.00 | 0.18 | 0.18 | 97 | 1016.8 |
| 20260902033041 | 68 | 0 | 0.0 | 0.0 | 0.00 | 0.18 | 0.18 | 97 | 1016.7 |
| 20260902032519 | 68 | 0 | 0.0 | 0.0 | 0.00 | 0.18 | 0.18 | 97 | 1016.8 |
| 20260902031540 | 68 | 0 | 0.0 | 0.0 | 0.00 | 0.18 | 0.18 | 97 | 1016.7 |
| 20260902031020 | 68 | 0 | 0.0 | 0.0 | 0.00 | 0.18 | 0.18 | 97 | 1016.7 |
| 20260902030521 | 68 | 0 | 0.0 | 0.0 | 0.00 | 0.18 | 0.18 | 97 | 1017.0 |
| 20260902030039 | 68 | 0 | 0.0 | 0.0 | 0.00 | 0.18 | 0.18 | 97 | 1016.8 |
| 20260902025517 | 69 | 0 | 0.0 | 0.0 | 0.00 | 0.18 | 0.18 | 97 | 1016.7 |
| 20260902024544 | 69 | 0 | 0.0 | 0.0 | 0.00 | 0.18 | 0.18 | 97 | 1016.9 |
| 20260902023048 | 69 | 0 | 0.0 | 0.0 | 0.00 | 0.18 | 0.18 | 97 | 1017.0 |
| 20260902022521 | 69 | 0 | 0.0 | 0.0 | 0.00 | 0.18 | 0.18 | 97 | 1017.1 |
| 20260902022018 | 69 | 0 | 0.0 | 0.0 | 0.00 | 0.18 | 0.18 | 97 | 1017.1 |
| 20260902021552 | 69 | 0 | 0.0 | 0.0 | 0.00 | 0.18 | 0.18 | 97 | 1017.1 |
| 20260902021024 | 69 | 0 | 0.0 | 0.0 | 0.00 | 0.18 | 0.18 | 97 | 1017.2 |
| 20260902020044 | 70 | 0 | 0.0 | 0.0 | 0.00 | 0.18 | 0.18 | 97 | 1017.0 |
| 20260902014543 | 70 | 0 | 0.0 | 0.0 | 0.00 | 0.18 | 0.18 | 97 | 1017.0 |
| 20260902013039 | 70 | 0 | 0.0 | 0.0 | 0.00 | 0.18 | 0.18 | 97 | 1016.6 |
| 20260902011540 | 70 | 0 | 0.0 | 0.0 | 0.00 | 0.18 | 0.18 | 97 | 1016.6 |
| 20260902010043 | 71 | 0 | 0.0 | 0.0 | 0.00 | 0.18 | 0.18 | 97 | 1016.5 |
| 20260902005521 | 71 | 0 | 0.0 | 0.0 | 0.00 | 0.18 | 0.18 | 97 | 1016.4 |
| 20260902004539 | 71 | 0 | 0.0 | 0.0 | 0.00 | 0.18 | 0.18 | 96 | 1016.1 |
| 20260902003043 | 71 | 0 | 0.0 | 0.0 | 0.00 | 0.18 | 0.18 | 96 | 1015.7 |
| 20260902001540 | 71 | 0 | 0.0 | 0.0 | 0.00 | 0.18 | 0.18 | 95 | 1015.6 |
| 20260902000039 | 72 | 0 | 0.0 | 0.0 | 0.00 | 0.18 | 0.18 | 94 | 1015.4 |
| 20260901235518 | 72 | 0 | 0.0 | 0.0 | 0.00 | 0.18 | 0.18 | 94 | 1015.4 |
| 20260901234538 | 73 | 0 | 0.0 | 0.0 | 0.00 | 0.18 | 0.18 | 92 | 1015.5 |
| 20260901233039 | 73 | 0 | 0.0 | 0.0 | 0.00 | 0.18 | 0.18 | 92 | 1015.5 |
| 20260901231540 | 74 | 0 | 0.0 | 0.0 | 0.00 | 0.18 | 0.18 | 92 | 1015.6 |
| 20260901231022 | 74 | 0 | 0.0 | 0.0 | 0.00 | 0.18 | 0.18 | 91 | 1015.6 |
| 20260901230520 | 74 | 0 | 0.0 | 0.0 | 0.00 | 0.18 | 0.18 | 91 | 1015.6 |
| 20260901230040 | 74 | 0 | 0.0 | 0.0 | 0.00 | 0.18 | 0.18 | 91 | 1015.5 |
| 20260901225518 | 74 | 0 | 0.0 | 0.0 | 0.00 | 0.18 | 0.18 | 91 | 1015.7 |
| 20260901225020 | 75 | 0 | 0.0 | 0.0 | 0.00 | 0.18 | 0.18 | 91 | 1015.7 |
| 20260901224541 | 75 | 0 | 0.0 | 0.0 | 0.00 | 0.18 | 0.18 | 91 | 1015.7 |
| 20260901224024 | 75 | 0 | 0.0 | 2.0 | 0.00 | 0.18 | 0.18 | 91 | 1015.7 |
| 20260901223524 | 75 | 0 | 0.0 | 2.0 | 0.00 | 0.18 | 0.18 | 90 | 1015.6 |
| 20260901223047 | 75 | 0 | 0.0 | 1.0 | 0.00 | 0.18 | 0.18 | 90 | 1015.6 |
| 20260901222520 | 75 | 0 | 0.0 | 1.0 | 0.00 | 0.18 | 0.18 | 90 | 1015.5 |
| 20260901222024 | 76 | 0 | 0.0 | 1.0 | 0.00 | 0.18 | 0.18 | 90 | 1015.4 |
| 20260901221540 | 76 | 0 | 0.0 | 3.0 | 0.00 | 0.18 | 0.18 | 89 | 1015.5 |
| 20260901221019 | 76 | 0 | 0.0 | 3.0 | 0.00 | 0.18 | 0.18 | 89 | 1015.4 |
| 20260901220524 | 76 | 0 | 0.0 | 0.0 | 0.00 | 0.18 | 0.18 | 89 | 1015.5 |
| 20260901220049 | 76 | 0 | 0.0 | 2.0 | 0.00 | 0.18 | 0.18 | 90 | 1015.5 |
| 20260901215524 | 76 | 0 | 0.0 | 2.0 | 0.00 | 0.18 | 0.18 | 89 | 1015.3 |
| 20260901215023 | 76 | 0 | 0.0 | 1.0 | 0.00 | 0.18 | 0.18 | 90 | 1015.2 |
| 20260901214542 | 76 | 0 | 0.0 | 3.0 | 0.00 | 0.18 | 0.18 | 89 | 1015.3 |
| 20260901214019 | 76 | 0 | 0.0 | 3.0 | 0.00 | 0.18 | 0.18 | 89 | 1015.2 |
| 20260901213523 | 76 | 0 | 0.0 | 1.0 | 0.00 | 0.18 | 0.18 | 89 | 1015.0 |
| 20260901213102 | 76 | 0 | 0.0 | 1.0 | 0.00 | 0.18 | 0.18 | 90 | 1015.3 |
| 20260901212520 | 76 | 0 | 0.0 | 0.0 | 0.00 | 0.18 | 0.18 | 90 | 1015.6 |
| 20260901212021 | 76 | 0 | 0.0 | 2.0 | 0.00 | 0.18 | 0.18 | 90 | 1015.5 |
| 20260901211540 | 76 | 0 | 0.0 | 2.0 | 0.00 | 0.18 | 0.18 | 90 | 1015.6 |
| 20260901211022 | 76 | 0 | 0.0 | 1.0 | 0.00 | 0.18 | 0.18 | 90 | 1015.6 |
| 20260901210520 | 76 | 0 | 0.0 | 1.0 | 0.00 | 0.18 | 0.18 | 90 | 1015.6 |
| 20260901210040 | 76 | 0 | 0.0 | 0.0 | 0.00 | 0.18 | 0.18 | 91 | 1015.5 |
| 20260901205525 | 76 | 0 | 0.0 | 0.0 | 0.00 | 0.18 | 0.18 | 92 | 1015.4 |
| 20260901205021 | 76 | 0 | 0.0 | 0.0 | 0.00 | 0.18 | 0.18 | 91 | 1015.3 |
| 20260901204547 | 76 | 0 | 0.0 | 0.0 | 0.00 | 0.18 | 0.18 | 92 | 1015.4 |
| 20260901204022 | 76 | 0 | 0.0 | 0.0 | 0.00 | 0.18 | 0.18 | 91 | 1015.4 |
| 20260901203539 | 76 | 0 | 0.0 | 0.0 | 0.00 | 0.18 | 0.18 | 91 | 1015.4 |
| 20260901203041 | 76 | 0 | 0.0 | 0.0 | 0.00 | 0.18 | 0.18 | 91 | 1015.2 |
| 20260901202521 | 76 | 0 | 0.0 | 0.0 | 0.00 | 0.18 | 0.18 | 90 | 1015.3 |
| 20260901202021 | 77 | 0 | 0.0 | 0.0 | 0.00 | 0.18 | 0.18 | 90 | 1015.1 |
| 20260901201541 | 77 | 0 | 0.0 | 0.0 | 0.00 | 0.18 | 0.18 | 90 | 1015.2 |
| 20260901201021 | 77 | 0 | 0.0 | 0.0 | 0.00 | 0.18 | 0.18 | 90 | 1015.2 |
| 20260901200519 | 77 | 0 | 0.0 | 1.0 | 0.00 | 0.18 | 0.18 | 89 | 1015.1 |
| 20260901200040 | 77 | 0 | 0.0 | 1.0 | 0.00 | 0.18 | 0.18 | 89 | 1015.1 |
| 20260901195524 | 78 | 0 | 0.0 | 1.0 | 0.00 | 0.18 | 0.18 | 88 | 1015.2 |
| 20260901195018 | 78 | 0 | 0.0 | 3.0 | 0.00 | 0.18 | 0.18 | 88 | 1015.1 |
| 20260901194542 | 77 | 0 | 0.0 | 3.0 | 0.00 | 0.18 | 0.18 | 88 | 1015.1 |
| 20260901194020 | 77 | 0 | 0.0 | 4.0 | 0.00 | 0.18 | 0.18 | 88 | 1015.0 |
| 20260901193518 | 77 | 0 | 0.0 | 4.0 | 0.00 | 0.18 | 0.18 | 88 | 1015.1 |
| 20260901193041 | 77 | 0 | 0.0 | 4.0 | 0.00 | 0.18 | 0.18 | 88 | 1015.1 |
| 20260901192517 | 77 | 0 | 0.0 | 3.0 | 0.00 | 0.18 | 0.18 | 89 | 1015.2 |
| 20260901192020 | 77 | 0 | 0.0 | 3.0 | 0.00 | 0.18 | 0.18 | 88 | 1015.3 |
| 20260901191540 | 77 | 0 | 0.0 | 3.0 | 0.00 | 0.18 | 0.18 | 90 | 1015.2 |
| 20260901191025 | 77 | 0 | 0.0 | 0.0 | 0.00 | 0.18 | 0.18 | 89 | 1015.1 |
| 20260901190521 | 77 | 0 | 0.0 | 2.0 | 0.00 | 0.18 | 0.18 | 90 | 1015.1 |
| 20260901190046 | 77 | 0 | 0.0 | 2.0 | 0.00 | 0.18 | 0.18 | 91 | 1015.2 |
| 20260901185522 | 76 | 0 | 0.0 | 2.0 | 0.00 | 0.18 | 0.18 | 90 | 1015.1 |
| 20260901185021 | 76 | 0 | 0.0 | 0.0 | 0.00 | 0.18 | 0.18 | 91 | 1014.9 |
| 20260901184546 | 76 | 0 | 0.0 | 0.0 | 0.00 | 0.18 | 0.18 | 91 | 1014.9 |
| 20260901184021 | 76 | 0 | 0.0 | 1.0 | 0.00 | 0.18 | 0.18 | 91 | 1014.9 |
| 20260901183519 | 76 | 0 | 0.0 | 1.0 | 0.00 | 0.18 | 0.18 | 91 | 1014.9 |
| 20260901183038 | 76 | 0 | 0.0 | 1.0 | 0.00 | 0.18 | 0.18 | 91 | 1014.7 |
| 20260901182523 | 76 | 0 | 0.0 | 0.0 | 0.00 | 0.18 | 0.18 | 91 | 1014.7 |
| 20260901182025 | 76 | 0 | 0.0 | 0.0 | 0.00 | 0.18 | 0.18 | 92 | 1014.6 |
| 20260901181541 | 76 | 0 | 0.0 | 2.0 | 0.00 | 0.18 | 0.18 | 91 | 1014.6 |
| 20260901181021 | 77 | 0 | 0.0 | 2.0 | 0.00 | 0.18 | 0.18 | 90 | 1014.6 |
| 20260901180521 | 77 | 0 | 0.0 | 2.0 | 0.00 | 0.18 | 0.18 | 90 | 1014.6 |
| 20260901180041 | 77 | 0 | 0.0 | 2.0 | 0.00 | 0.18 | 0.18 | 89 | 1014.5 |
| 20260901175521 | 77 | 0 | 0.0 | 1.0 | 0.00 | 0.19 | 0.18 | 90 | 1014.5 |
| 20260901175020 | 77 | 0 | 0.0 | 0.0 | 0.00 | 0.19 | 0.18 | 90 | 1014.5 |
| 20260901174541 | 77 | 0 | 0.0 | 0.0 | 0.00 | 0.19 | 0.18 | 89 | 1014.4 |
| 20260901174021 | 77 | 0 | 0.0 | 0.0 | 0.00 | 0.19 | 0.18 | 89 | 1014.3 |
| 20260901173522 | 77 | 0 | 0.0 | 0.0 | 0.00 | 0.19 | 0.18 | 90 | 1014.3 |
| 20260901173036 | 77 | 0 | 0.0 | 0.0 | 0.00 | 0.19 | 0.18 | 89 | 1014.4 |
| 20260901172526 | 78 | 0 | 0.0 | 1.0 | 0.00 | 0.19 | 0.18 | 89 | 1014.3 |
| 20260901172021 | 78 | 0 | 0.0 | 1.0 | 0.00 | 0.19 | 0.18 | 88 | 1014.2 |
| 20260901171549 | 78 | 0 | 0.0 | 3.0 | 0.00 | 0.19 | 0.18 | 87 | 1014.2 |
| 20260901171018 | 78 | 0 | 0.0 | 3.0 | 0.00 | 0.19 | 0.18 | 88 | 1014.3 |
| 20260901170521 | 78 | 0 | 0.0 | 3.0 | 0.00 | 0.19 | 0.18 | 88 | 1014.3 |
| 20260901170048 | 77 | 0 | 0.0 | 0.0 | 0.00 | 0.19 | 0.18 | 90 | 1014.3 |
| 20260901165519 | 77 | 0 | 0.0 | 0.0 | 0.00 | 0.19 | 0.18 | 92 | 1014.3 |
| 20260901165020 | 76 | 0 | 0.0 | 0.0 | 0.00 | 0.19 | 0.18 | 91 | 1014.4 |
| 20260901164544 | 76 | 0 | 0.0 | 0.0 | 0.00 | 0.19 | 0.18 | 93 | 1014.3 |
| 20260901164021 | 76 | 0 | 0.0 | 0.0 | 0.00 | 0.19 | 0.18 | 94 | 1014.4 |
| 20260901163520 | 76 | 0 | 0.0 | 0.0 | 0.00 | 0.19 | 0.18 | 95 | 1014.3 |